COSMOS 1291

导读

**COSMOS 1291卫星概要** COSMOS 1291是前苏联(CIS)于1981年8月6日发射的卫星,隶属于“宇宙”系列卫星任务。该系列作为苏联重要航天项目,涵盖军事侦察、空间科学探测等多种用途。作为冷战时期航天活动的一部分,它延续了“宇宙”系列技术积累,为苏联在轨道观测、空间环境研究等领域提供数据支持,体现了当时航天技术发展水平。(字数:120)

Basic Information
目录编号:
12640
目录名称:
COSMOS 1291
国际标识:
1981-074E
轨道中心:
EARTH
卫星名称:
COSMOS 1291
卫星全名:
--
卫星状态:
在轨 (已飞行16386 天)
发射日期:
1981-08-06 UTC
国别 :
俄罗斯(独联体) (CIS)
星等 :
--
Orbit Information
数据来源 国际轨道数据
星历时间: 2026-06-17T20:44:30+0800
5小时前
查看轨道信息
半长轴: 7838.924km
偏心率: 0.0004756
轨道倾角: 74.035°
近地点辐角 258.142°
升交点赤经 299.400°
平近点角 173.033°
近地点: 1457.058km
远地点: 1464.516km
周期: 115.118分钟
每日圈数: 12.508872
Detailed Information
使用方式:
暂无
2D Orbit Map
3D Orbit Map
Orbit Altitude Analysis Chart
Orbit Inclination Analysis Chart
Orbit Comprehensive Analysis Chart
View Comprehensive Chart